Simultaneous Nadir Overpasses (SNOs) Predictions

Prediction of SNOs between METOP-A and NPP Satellite Orbit:

Table of predicted SNOs for the next 14.0 days since TLE Epoch: 4/25/2014
Index Date (METOP-A) Time (METOP-A) Lat,Lon (METOP-A) SZA (METOP-A ) Date (NPP) Time (NPP) Lat,Lon (NPP) SZA (NPP ) Distance(km) Time Diff (sec)
1 05/07/2014 22:51:03 73.72,-169.00 56.72 05/07/2014 22:49:56 73.76,-171.79 56.87 86.87 67
2 05/07/2014 23:41:46 -73.66, -1.82 123.35 05/07/2014 23:40:38 -73.66, -4.25 123.24 76.00 68
3 05/08/2014 00:32:30 73.45, 165.03 56.45 05/08/2014 00:31:19 73.41, 163.65 56.47 44.10 71
4 05/08/2014 01:23:14 -73.34, -27.89 123.66 05/08/2014 01:22:02 -73.36, -28.93 123.59 33.32 72
5 05/08/2014 02:13:58 73.13, 138.98 56.14 05/08/2014 02:12:44 73.16, 138.84 56.18 5.32 74
6 05/08/2014 03:04:40 -73.12, -53.71 123.88 05/08/2014 03:03:27 -73.11, -53.75 123.88 1.57 73
7 05/08/2014 03:55:20 73.11, 113.60 56.10 05/08/2014 03:54:13 73.11, 113.58 56.11 0.82 67
8 05/08/2014 04:46:02 -73.10, -79.09 123.92 05/08/2014 04:44:57 -73.11, -79.12 123.90 1.20 65
9 05/08/2014 05:36:42 73.09, 88.21 56.06 05/08/2014 05:35:43 73.11, 88.21 56.09 1.53 59
10 05/08/2014 06:27:24 -73.08,-104.48 123.96 05/08/2014 06:26:27 -73.11,-104.49 123.92 3.03 57
11 05/08/2014 07:18:04 73.07, 62.83 56.03 05/08/2014 07:17:13 73.10, 62.83 56.07 3.60 51
12 05/08/2014 08:08:46 -73.06,-129.86 123.99 05/08/2014 08:07:56 -73.06,-129.75 123.99 3.42 50
13 05/08/2014 08:59:25 73.10, 37.56 56.03 05/08/2014 08:58:43 73.10, 37.46 56.05 3.22 42
14 05/08/2014 09:50:07 -73.10,-155.13 123.99 05/08/2014 09:49:27 -73.11,-155.24 123.96 3.73 40
15 05/08/2014 10:40:47 73.08, 12.18 56.00 05/08/2014 10:40:12 73.05, 12.20 55.97 3.48 35
16 05/08/2014 11:31:29 -73.08, 179.49 124.02 05/08/2014 11:30:56 -73.06, 179.50 124.03 1.99 33
17 05/08/2014 12:22:09 73.06, -13.20 55.96 05/08/2014 12:21:42 73.05, -13.18 55.95 1.63 27
18 05/08/2014 13:12:51 -73.06, 154.11 124.06 05/08/2014 13:12:26 -73.06, 154.13 124.05 0.76 25
19 05/08/2014 14:03:31 73.04, -38.59 55.92 05/08/2014 14:03:12 73.05, -38.55 55.93 1.45 19
20 05/08/2014 14:54:13 -73.04, 128.72 124.10 05/08/2014 14:53:56 -73.06, 128.76 124.07 2.46 17
21 05/08/2014 15:44:53 73.02, -63.97 55.89 05/08/2014 15:44:42 73.05, -63.92 55.91 3.25 11
22 05/08/2014 16:35:34 -73.07, 103.45 124.09 05/08/2014 16:35:26 -73.06, 103.38 124.09 2.53 8
23 05/08/2014 17:26:14 73.06, -89.24 55.90 05/08/2014 17:26:12 73.05, -89.29 55.89 1.83 2
24 05/08/2014 18:16:56 -73.05, 78.07 124.12 05/08/2014 18:16:56 -73.06, 78.01 124.11 2.04 0
25 05/08/2014 19:07:36 73.04,-114.62 55.86 05/08/2014 19:07:42 73.05,-114.67 55.87 2.02 6
26 05/08/2014 19:58:18 -73.03, 52.69 124.16 05/08/2014 19:58:26 -73.05, 52.64 124.13 3.28 8
27 05/08/2014 20:48:58 73.02,-140.01 55.82 05/08/2014 20:49:11 73.00,-139.93 55.80 3.18 13
28 05/08/2014 21:39:40 -73.01, 27.30 124.20 05/08/2014 21:39:55 -73.00, 27.37 124.21 2.32 15
29 05/08/2014 22:30:20 73.00,-165.39 55.79 05/08/2014 22:30:41 73.00,-165.30 55.78 2.72 21
30 05/08/2014 23:21:02 -72.99, 1.92 124.23 05/08/2014 23:21:25 -73.00, 2.00 124.23 2.93 23
31 05/09/2014 00:11:41 73.03, 169.34 55.80 05/09/2014 00:12:11 73.00, 169.32 55.76 3.51 30
32 05/09/2014 01:02:23 -73.02, -23.35 124.23 05/09/2014 01:02:55 -73.00, -23.37 124.25 2.15 32
33 05/09/2014 01:53:03 73.01, 143.96 55.76 05/09/2014 01:53:41 73.00, 143.95 55.74 1.38 38
34 05/09/2014 02:43:45 -73.00, -48.73 124.26 05/09/2014 02:44:25 -73.00, -48.74 124.27 0.40 40
35 05/09/2014 03:34:24 72.99, 118.58 55.72 05/09/2014 03:35:10 72.99, 118.58 55.72 0.74 46
36 05/09/2014 04:25:06 -72.98, -74.11 124.30 05/09/2014 04:25:54 -73.00, -74.12 124.29 2.15 48
37 05/09/2014 05:15:46 72.97, 93.19 55.68 05/09/2014 05:16:40 72.99, 93.20 55.70 2.87 54
38 05/09/2014 06:06:27 -73.01, -99.39 124.29 05/09/2014 06:07:24 -73.00, -99.49 124.31 3.59 57
39 05/09/2014 06:57:07 73.00, 67.92 55.69 05/09/2014 06:58:10 72.99, 67.83 55.68 2.95 63
40 05/09/2014 07:47:49 -72.99,-124.77 124.33 05/09/2014 07:48:54 -73.00,-124.86 124.33 3.12 65
41 05/09/2014 08:38:29 72.98, 42.54 55.66 05/09/2014 08:39:40 72.99, 42.46 55.66 2.96 71
42 05/09/2014 09:29:11
